Weather History for Appleton, MN

Change the Weather History Date:

Wednesday, May 13, 2009

  Actual Average Record
Temperature  
Mean Temperature 61 °F -  
Max Temperature 69 °F 65 °F 89 °F (2007)
Min Temperature 53 °F 42 °F 26 °F (1997)
Degree Days  
Heating Degree Days 4    
Growing Degree Days 11 (Base 50)    
Moisture  
Dew Point 49 °F    
Average Humidity 73    
Maximum Humidity 100    
Minimum Humidity 28    
Precipitation  
Precipitation 0.08 in - - ()
Sea Level Pressure  
Sea Level Pressure 29.54 in    
Wind  
Wind Speed 14 mph (WSW)    
Max Wind Speed 30 mph    
Max Gust Speed 39 mph    
Visibility 10 miles    
Events Rain , Thunderstorm    
Averages and records for this station are not official NWS values.
T = Trace of Precipitation, MM = Missing Value Source: NWS Daily Summary

Daily Weather History Graph

Daily Weather History Graph

Search for Another Location

Airport:

Trip Planner

Search our weather history database for the weather conditions in past years. The results will help you decide how hot, cold, wet, or windy it might be!

Date:

Astronomy

May. 13, 2009 Rise Set
Actual Time 5:56 AM CDT 8:45 PM CDT
Civil Twilight 5:22 AM CDT 9:19 PM CDT
Nautical Twilight 4:38 AM CDT 10:02 PM CDT
Astronomical Twilight 3:48 AM CDT 10:54 PM CDT
Moon 12:29 AM CDT (5/13) 9:01 AM CDT (5/13)
Length of Visible Light 15h 57m
Length of Day
14h 48m
Waning Gibbous, 82% of the Moon is Illuminated
May 13
Waning Gibbous
May 17
Last Quarter
May 24
New
May 30
First Quarter
Jun 7
Full

Hourly Weather History & Observations

Time (CDT) Temp. Windchill Dew Point Humidity Pressure Visibility Wind Dir Wind Speed Gust Speed Precip Events Conditions
12:13 AM 59.0 °F - 57.2 °F 94% 29.53 in 10.0 mi SSE 8.1 mph - N/A Rain Light Rain
12:34 AM 59.0 °F - 57.2 °F 94% 29.56 in 10.0 mi South 11.5 mph - N/A Rain , Thunderstorm Heavy Thunderstorms and Rain
12:53 AM 57.2 °F - 57.2 °F 100% 29.54 in 10.0 mi SSE 10.4 mph - 0.02 in Rain Light Rain
1:13 AM 57.2 °F - 57.2 °F 100% 29.51 in 10.0 mi SSE 12.7 mph - 0.04 in Rain Rain
1:34 AM 57.2 °F - 57.2 °F 100% 29.50 in 7.0 mi SSE 11.5 mph 17.3 mph 0.04 in Rain Light Rain
1:53 AM 57.2 °F - 57.2 °F 100% 29.50 in 10.0 mi SSE 11.5 mph 18.4 mph 0.04 in Rain Light Rain
2:13 AM 57.2 °F - 57.2 °F 100% 29.48 in 10.0 mi SSE 13.8 mph 18.4 mph 0.01 in Rain Light Rain
2:34 AM 57.2 °F - 57.2 °F 100% 29.45 in 10.0 mi SSE 15.0 mph 20.7 mph 0.02 in Rain Light Rain
2:54 AM 57.2 °F - 57.2 °F 100% 29.44 in 7.0 mi SSE 15.0 mph 24.2 mph 0.02 in   Mostly Cloudy
3:13 AM 57.2 °F - 57.2 °F 100% 29.45 in 7.0 mi SSE 12.7 mph 19.6 mph N/A   Mostly Cloudy
3:34 AM 57.2 °F - 57.2 °F 100% 29.45 in 7.0 mi South 12.7 mph 20.7 mph N/A   Mostly Cloudy
3:54 AM 57.2 °F - 57.2 °F 100% 29.45 in 7.0 mi South 11.5 mph - N/A   Overcast
4:14 AM 57.2 °F - 57.2 °F 100% 29.47 in 7.0 mi South 11.5 mph - N/A   Overcast
4:34 AM 57.2 °F - 57.2 °F 100% 29.47 in 10.0 mi SSW 9.2 mph - N/A   Overcast
4:54 AM 57.2 °F - 57.2 °F 100% 29.47 in 10.0 mi SSW 9.2 mph - N/A   Mostly Cloudy
5:13 AM 57.2 °F - 57.2 °F 100% 29.48 in 10.0 mi SW 9.2 mph - N/A   Clear
5:33 AM 57.2 °F - 57.2 °F 100% 29.48 in 10.0 mi WSW 9.2 mph - N/A   Clear
5:54 AM 55.4 °F - 55.4 °F 100% 29.49 in 10.0 mi West 11.5 mph - N/A   Clear
6:33 AM 53.6 °F - 53.6 °F 100% 29.51 in 10.0 mi WSW 11.5 mph - N/A   Clear
6:54 AM 53.6 °F - 53.6 °F 100% 29.52 in 10.0 mi West 9.2 mph - N/A   Clear
7:14 AM 53.6 °F - 53.6 °F 100% 29.53 in 10.0 mi West 6.9 mph - N/A   Clear
7:34 AM 53.6 °F - 53.6 °F 100% 29.54 in 7.0 mi Calm Calm - N/A   Clear
7:54 AM 53.6 °F - 53.6 °F 100% 29.55 in 7.0 mi SW 9.2 mph - N/A   Clear
8:14 AM 53.6 °F - 53.6 °F 100% 29.54 in 7.0 mi SW 8.1 mph - N/A   Clear
8:34 AM 55.4 °F - 53.6 °F 94% 29.54 in 7.0 mi SW 10.4 mph - N/A   Clear
8:53 AM 55.4 °F - 53.6 °F 94% 29.54 in 10.0 mi SW 11.5 mph - N/A   Clear
9:14 AM 57.2 °F - 53.6 °F 88% 29.54 in 10.0 mi WSW 12.7 mph - N/A   Clear
9:33 AM 57.2 °F - 55.4 °F 94% 29.55 in 10.0 mi WSW 11.5 mph - N/A   Scattered Clouds
9:54 AM 59.0 °F - 53.6 °F 82% 29.54 in 10.0 mi WSW 9.2 mph - N/A   Scattered Clouds
10:13 AM 60.8 °F - 53.6 °F 77% 29.55 in 10.0 mi WSW 13.8 mph - N/A   Clear
10:33 AM 60.8 °F - 53.6 °F 77% 29.55 in 10.0 mi West 13.8 mph - N/A   Clear
10:54 AM 62.6 °F - 53.6 °F 72% 29.55 in 10.0 mi West 15.0 mph 20.7 mph N/A   Clear
11:14 AM 62.6 °F - 51.8 °F 68% 29.55 in 10.0 mi West 13.8 mph 20.7 mph N/A   Clear
11:34 AM 62.6 °F - 51.8 °F 68% 29.55 in 10.0 mi West 15.0 mph - N/A   Clear
11:53 AM 64.4 °F - 51.8 °F 64% 29.55 in 10.0 mi West 18.4 mph 24.2 mph N/A   Clear
12:14 PM 64.4 °F - 50.0 °F 59% 29.55 in 10.0 mi West 12.7 mph 19.6 mph N/A   Clear
12:34 PM 66.2 °F - 48.2 °F 52% 29.54 in 10.0 mi West 17.3 mph - N/A   Clear
12:53 PM 66.2 °F - 48.2 °F 52% 29.54 in 10.0 mi West 18.4 mph 21.9 mph N/A   Clear
1:13 PM 66.2 °F - 48.2 °F 52% 29.54 in 10.0 mi West 23.0 mph 27.6 mph N/A   Clear
1:34 PM 68.0 °F - 48.2 °F 49% 29.55 in 10.0 mi West 19.6 mph 27.6 mph N/A   Clear
1:53 PM 69.8 °F - 48.2 °F 46% 29.56 in 10.0 mi West 20.7 mph 28.8 mph N/A   Scattered Clouds
2:14 PM 68.0 °F - 44.6 °F 43% 29.56 in 10.0 mi West 23.0 mph 34.5 mph N/A   Scattered Clouds
2:34 PM 69.8 °F - 39.2 °F 33% 29.56 in 10.0 mi West 25.3 mph 29.9 mph N/A   Scattered Clouds
2:53 PM 68.0 °F - 41.0 °F 37% 29.57 in 10.0 mi West 25.3 mph 33.4 mph N/A   Scattered Clouds
3:13 PM 66.2 °F - 41.0 °F 40% 29.58 in 10.0 mi WNW 21.9 mph 27.6 mph N/A   Scattered Clouds
3:34 PM 64.4 °F - 37.4 °F 37% 29.58 in 10.0 mi West 21.9 mph 35.7 mph N/A   Scattered Clouds
3:53 PM 66.2 °F - 37.4 °F 35% 29.58 in 10.0 mi West 27.6 mph 36.8 mph N/A   Scattered Clouds
4:13 PM 66.2 °F - 37.4 °F 35% 29.59 in 10.0 mi WNW 29.9 mph 34.5 mph N/A   Scattered Clouds
4:33 PM 64.4 °F - 33.8 °F 32% 29.60 in 10.0 mi West 26.5 mph 35.7 mph N/A   Scattered Clouds
4:54 PM 64.4 °F - 35.6 °F 34% 29.61 in 10.0 mi West 26.5 mph 34.5 mph N/A   Scattered Clouds
5:13 PM 64.4 °F - 32.0 °F 30% 29.61 in 10.0 mi West 27.6 mph 35.7 mph N/A   Scattered Clouds
5:34 PM 62.6 °F - 30.2 °F 30% 29.62 in 10.0 mi West 26.5 mph 34.5 mph N/A   Scattered Clouds
5:53 PM 64.4 °F - 30.2 °F 28% 29.63 in 10.0 mi West 27.6 mph 39.1 mph N/A   Scattered Clouds
6:14 PM 60.8 °F - 32.0 °F 34% 29.64 in 10.0 mi WNW 27.6 mph 36.8 mph N/A   Scattered Clouds
6:33 PM 59.0 °F - 33.8 °F 39% 29.64 in 10.0 mi WNW 25.3 mph 35.7 mph N/A   Scattered Clouds
6:54 PM 57.2 °F - 35.6 °F 44% 29.64 in 10.0 mi WNW 18.4 mph 31.1 mph N/A   Clear
7:13 PM 57.2 °F - 33.8 °F 41% 29.64 in 10.0 mi West 18.4 mph 23.0 mph N/A   Clear
7:33 PM 59.0 °F - 30.2 °F 34% 29.64 in 10.0 mi West 23.0 mph 34.5 mph N/A   Clear
7:53 PM 57.2 °F - 28.4 °F 33% 29.64 in 10.0 mi West 18.4 mph 28.8 mph N/A   Clear
8:14 PM 57.2 °F - 33.8 °F 41% 29.65 in 10.0 mi West 20.7 mph - N/A   Clear
8:34 PM 55.4 °F - 35.6 °F 47% 29.65 in 10.0 mi West 17.3 mph - N/A   Clear
8:53 PM 53.6 °F - 33.8 °F 47% 29.65 in 10.0 mi West 13.8 mph - N/A   Clear
9:13 PM 53.6 °F - 35.6 °F 51% 29.65 in 10.0 mi West 17.3 mph 23.0 mph N/A   Clear
9:33 PM 53.6 °F - 37.4 °F 54% 29.67 in 10.0 mi WNW 26.5 mph 31.1 mph N/A   Scattered Clouds
9:54 PM 51.8 °F - 37.4 °F 58% 29.69 in 10.0 mi WNW 26.5 mph 33.4 mph N/A   Clear
10:14 PM 50.0 °F - 37.4 °F 62% 29.71 in 10.0 mi WNW 26.5 mph 34.5 mph N/A   Clear
10:33 PM 48.2 °F - 39.2 °F 71% 29.72 in 10.0 mi WNW 25.3 mph 31.1 mph N/A   Clear
10:53 PM 48.2 °F - 39.2 °F 71% 29.73 in 10.0 mi WNW 20.7 mph 29.9 mph N/A   Clear
11:13 PM 48.2 °F - 39.2 °F 71% 29.74 in 10.0 mi WNW 21.9 mph 29.9 mph N/A   Clear
11:33 PM 48.2 °F - 39.2 °F 71% 29.75 in 10.0 mi West 29.9 mph 33.4 mph N/A   Mostly Cloudy
11:53 PM 46.4 °F 37.2 °F 39.2 °F 76% 29.77 in 10.0 mi WNW 29.9 mph 38.0 mph N/A   Overcast